Weather History for Miles City, MT

Change the Weather History Date:

Sunday, February 24, 2013

  Actual Average Record
Temperature  
Mean Temperature 35 °F 27 °F  
Max Temperature 45 °F 39 °F 72 °F (1995)
Min Temperature 24 °F 16 °F -23 °F (1993)
Degree Days  
Heating Degree Days 30 38  
Month to date heating degree days 789 989  
Since 1 July heating degree days 5069 5585  
Cooling Degree Days 0 0  
Month to date cooling degree days 0 0  
Year to date cooling degree days 0 0  
Moisture  
Dew Point 22 °F    
Average Humidity 57    
Maximum Humidity 82    
Minimum Humidity 31    
Precipitation  
Precipitation 0.00 in 0.01 in 0.17 in (1950)
Month to date precipitation 0.01 0.19  
Year to date precipitation 0.19 0.51  
Sea Level Pressure  
Sea Level Pressure 30.07 in    
Wind  
Wind Speed 11 mph (WNW)    
Max Wind Speed 25 mph    
Max Gust Speed 32 mph    
Visibility 10 miles    
Events      
T = Trace of Precipitation, MM = Missing Value Source: NWS Daily Summary

Daily Weather History Graph

Daily Weather History Graph

Search for Another Location

Airport:

Trip Planner

Search our weather history database for the weather conditions in past years. The results will help you decide how hot, cold, wet, or windy it might be!

Date:

Astronomy

Feb. 24, 2013 Rise Set
Actual Time 6:51 AM MST 5:42 PM MST
Civil Twilight 6:20 AM MST 6:13 PM MST
Nautical Twilight 5:45 AM MST 6:48 PM MST
Astronomical Twilight 5:11 AM MST 7:23 PM MST
Moon 4:56 PM MST (2/24) 5:51 AM MST (2/24)
Length of Visible Light 11h 52m
Length of Day
10h 51m
Waxing Gibbous, 99% of the Moon is Illuminated
Feb 24
Waxing Gibbous
Feb 25
Full
Mar 4
Last Quarter
Mar 11
New
Mar 19
First Quarter

Hourly Weather History & Observations

Time (MST) Temp. Windchill Dew Point Humidity Pressure Visibility Wind Dir Wind Speed Gust Speed Precip Events Conditions
12:53 AM 32.0 °F 23.6 °F 25.0 °F 75% 29.95 in 10.0 mi NW 10.4 mph - N/A   Scattered Clouds
1:36 AM 32.0 °F 23.6 °F 24.8 °F 75% 29.91 in 10.0 mi WNW 10.4 mph - N/A   Mostly Cloudy
1:53 AM 32.0 °F 23.6 °F 25.0 °F 75% 29.96 in 10.0 mi WNW 10.4 mph - N/A   Mostly Cloudy
2:27 AM 30.2 °F 19.3 °F 24.8 °F 80% 29.93 in 10.0 mi NW 15.0 mph - N/A   Scattered Clouds
2:38 AM 30.2 °F 19.8 °F 24.8 °F 80% 29.93 in 10.0 mi NNW 13.8 mph - N/A   Mostly Cloudy
2:53 AM 30.9 °F 20.2 °F 24.1 °F 76% 29.99 in 10.0 mi NW 15.0 mph - N/A   Overcast
3:53 AM 32.0 °F 20.8 °F 25.0 °F 75% 30.01 in 10.0 mi NNW 17.3 mph - N/A   Overcast
4:53 AM 32.0 °F 22.5 °F 26.1 °F 79% 30.04 in 10.0 mi NNW 12.7 mph - N/A   Overcast
5:53 AM 32.0 °F 22.5 °F 25.0 °F 75% 30.09 in 10.0 mi NNW 12.7 mph - N/A   Overcast
6:53 AM 28.0 °F 18.6 °F 23.0 °F 81% 30.13 in 10.0 mi WNW 10.4 mph - N/A   Overcast
7:53 AM 28.9 °F 18.2 °F 23.0 °F 78% 30.14 in 10.0 mi NW 13.8 mph - N/A   Clear
8:53 AM 32.0 °F 21.6 °F 23.0 °F 69% 30.16 in 10.0 mi NW 15.0 mph - N/A   Clear
9:53 AM 35.1 °F 25.9 °F 23.0 °F 61% 30.17 in 10.0 mi NW 13.8 mph - N/A   Clear
10:53 AM 39.0 °F 30.6 °F 19.9 °F 46% 30.15 in 10.0 mi NNW 15.0 mph - N/A   Clear
11:53 AM 41.0 °F 35.2 °F 19.0 °F 41% 30.14 in 10.0 mi NW 9.2 mph - N/A   Clear
12:53 PM 43.0 °F 37.2 °F 18.0 °F 37% 30.12 in 10.0 mi NW 10.4 mph - N/A   Clear
1:53 PM 44.1 °F 37.7 °F 16.0 °F 32% 30.10 in 10.0 mi NNW 12.7 mph - N/A   Clear
2:53 PM 44.1 °F 39.5 °F 16.0 °F 32% 30.09 in 10.0 mi NW 8.1 mph - N/A   Scattered Clouds
3:53 PM 43.0 °F 41.3 °F 17.1 °F 35% 30.09 in 10.0 mi West 3.5 mph - N/A   Clear
4:53 PM 39.9 °F 33.9 °F 19.0 °F 43% 30.10 in 10.0 mi WSW 9.2 mph - N/A   Clear
5:53 PM 33.1 °F 26.1 °F 19.9 °F 59% 30.11 in 10.0 mi SW 8.1 mph - N/A   Clear
6:53 PM 33.1 °F 26.1 °F 21.9 °F 64% 30.11 in 10.0 mi SSW 8.1 mph - N/A   Clear
7:53 PM 33.1 °F 25.5 °F 21.0 °F 61% 30.11 in 10.0 mi South 9.2 mph - N/A   Clear
8:53 PM 30.9 °F 24.3 °F 19.9 °F 64% 30.11 in 10.0 mi South 6.9 mph - N/A   Clear
9:53 PM 27.0 °F 18.0 °F 19.9 °F 75% 30.10 in 10.0 mi SSE 9.2 mph - N/A   Clear
10:53 PM 26.1 °F 18.4 °F 19.9 °F 78% 30.07 in 10.0 mi SSE 6.9 mph - N/A   Clear
11:53 PM 25.0 °F 16.3 °F 19.0 °F 78% 30.06 in 10.0 mi South 8.1 mph - N/A   Clear